Regional Weather Roundup
Issued by NWS

Home | Current Version | Previous Version | Graphics & Text | Print | Product List | Glossary On
Versions: 1 2 3 4 5 6 7 8 9 10 11 12 13 14 15 16 17 18 19 20 21 22 23 24 25 26 27 28 29 30 31 32 33 34 35 36 37 38 39 40 41 42 43 44 45 46 47 48 49 50
000
ASUS43 KMPX 242010
RWRMN
WEATHER ROUNDUP FOR MINNESOTA
NATIONAL WEATHER SERVICE TWIN CITIES/CHANHASSEN MN
300 PM CDT FRI MAR 24 2017


NOTE: "FAIR" INDICATES FEW OR NO CLOUDS BELOW 12,000 FEET WITH NO
SIGNIFICANT WEATHER AND/OR OBSTRUCTIONS TO VISIBILITY. N/A MEANS
CURRENT SKY AND/OR WEATHER CONDITIONS ARE NOT AVAILABLE.

MNZ060>063-068>070-242100-
   Twin Cities Metro

CITY           SKY/WX    TMP DP  RH WIND       PRES   REMARKS
TWIN CITIES    CLOUDY    45  36  70 N12G23    30.08R
ST PAUL        CLOUDY    45  37  73 N12       30.08R
CRYSTAL        CLOUDY    44  34  67 N10       30.07R
BLAINE         CLOUDY    45  39  81 MISG      30.08R
LAKEVILLE      CLOUDY    43  37  81 N10       30.06R
EDEN PRAIRIE   CLOUDY    46  36  68 NE9       30.06R
SOUTH ST PAUL  CLOUDY    44  36  71 N7        30.07R
LAKE ELMO      CLOUDY    43  37  81 N8        30.08R
$$
MNZ001>005-007-008-013>017-022>024-027-028-242100-
   Northwest Minnesota

CITY           SKY/WX    TMP DP  RH WIND       PRES   REMARKS
BEMIDJI        CLOUDY    38  30  71 N5        30.14F
HALLOCK        CLOUDY    36  28  75 N6        30.24R
ROSEAU         PTSUNNY   36  28  75 N6        30.20S
WARROAD        CLOUDY    36  27  69 NE6       30.21S
THIEF RVR FALL CLOUDY   N/A N/A N/A N13       30.19F
CROOKSTON      CLOUDY    36  30  80 N12       30.21S
FOSSTON        CLOUDY    37  30  75 N3        30.17S
DETROIT LAKES  CLOUDY    41  32  70 N12G17    30.14S
MOORHEAD       CLOUDY    37  32  81 N15       30.18S
PARK RAPIDS    CLOUDY    41  29  62 N13       30.11F
MAHNOMEN       CLOUDY    38  31  76 N8        30.15S
$$
MNZ006-009>011-018-025>026-242100-
   North Central Minnesota

CITY           SKY/WX    TMP DP  RH WIND       PRES   REMARKS
BAUDETTE       CLOUDY    39  25  57 N12       30.17R
FLAG ISLAND    CLOUDY    34  25  69 N8        30.20R WCI  27
INTL FALLS     CLOUDY    39  26  59 NE7       30.16R
WASKISH        CLOUDY    39  30  70 W6        30.15S
BIG FORK       CLOUDY    39  30  70 N3        30.14S
LONGVILLE      CLOUDY    39  32  75 N8        30.12S
GRAND RAPIDS   CLOUDY    39  33  79 N8        30.14S
CRANE LAKE     CLOUDY    36  28  75 N5        30.18R
ORR            CLOUDY    37  28  70 CALM      30.13R
COOK           CLOUDY    37  32  81 N5        30.15R
WALKER         CLOUDY    39  31  72 NE9       30.12F
$$
MNZ012-019>021-037-242100-
   Northeast Minnesota

CITY           SKY/WX    TMP DP  RH WIND       PRES   REMARKS
DULUTH         CLOUDY    38  34  85 N7        30.10R
ELY            CLOUDY    36  32  87 NE3       30.13S
HIBBING        CLOUDY    36  33  89 N8        30.12S
EVELETH        CLOUDY    37  33  84 NE5       30.13F
DULUTH HARBOR  CLOUDY    37  34  87 CALM      30.14R
TWO HARBORS    CLOUDY    41  36  81 CALM      30.09S
SILVER BAY     CLOUDY    39  36  87 CALM      30.10R
GRAND MARAIS     N/A     38  35  89 CALM      30.14R
G MARAIS ARPRT CLOUDY    34  28  80 N6        30.11R HAZE    WCI  29
$$
MNZ029>031-032-039>041-046>048-054>057-064-242100-
   West Central Minnesota

CITY           SKY/WX    TMP DP  RH WIND       PRES   REMARKS
FERGUS FALLS   CLOUDY    43  32  65 N12       30.16R
WHEATON        CLOUDY    43  34  70 N14G20    30.16R
MORRIS         CLOUDY    43  36  75 N15       30.11S
ALEXANDRIA     CLOUDY    42  34  73 NE12      30.12R
ELBOW LAKE     FAIR      43  34  69 N12       30.12S HAZE
WADENA         CLOUDY    43  34  70 NE10      30.11R
GLENWOOD       CLOUDY    39  34  81 N12       30.12R
APPLETON       CLOUDY    45  36  70 N10       30.13R
BENSON         CLOUDY    43  34  70 NE10      30.14S
ORTONVILLE     CLOUDY    41  34  75 N13       30.13R
MADISON        CLOUDY    43  39  87 N9        30.14R
WILLMAR        CLOUDY    39  36  87 N12       30.13S
$$
MNZ033>034-036-042>043-049>051-058-059-242100-
   Central Minnesota

CITY           SKY/WX    TMP DP  RH WIND       PRES   REMARKS
ST CLOUD       CLOUDY    40  34  79 N7        30.12R
SAUK CENTRE    CLOUDY    38  33  81 NE12      30.12R
PAYNESVILLE      N/A     38  38 100 NE10      30.11R
AITKIN         CLOUDY    43  30  61 N8G18     30.11R
PINE RIVER     CLOUDY    39  32  75 N10       30.14S
BRAINERD       CLOUDY    40  31  70 NE13      30.12R
STAPLES        CLOUDY    43  32  65 NE12      30.11R
LONG PRAIRIE   CLOUDY    37  32  81 N9        30.12R
LITTLE FALLS   CLOUDY    37  32  81 N3        30.12R
LITCHFIELD     CLOUDY    41  36  81 N8        30.10F
BUFFALO        CLOUDY    41  34  75 N10       30.11S
MAPLE LAKE     CLOUDY    41  37  83 N8        30.11R
HUTCHINSON     CLOUDY    42  37  83 N7        30.09F
$$
MNZ037-044-045-052-053-242100-
   East Central Minnesota

CITY           SKY/WX    TMP DP  RH WIND       PRES   REMARKS
PRINCETON      CLOUDY    41  36  81 N7        30.12R
MORA           CLOUDY    37  32  81 NE3       30.12R
CAMBRIDGE      CLOUDY    43  34  70 N6        30.09R
RUSH CITY      CLOUDY    40  34  79 N9        30.09R
MOOSE LAKE     CLOUDY    37  32  81 N8        30.09R
HINCKLEY       CLOUDY    37  34  87 N9        30.10R
CLOQUET        CLOUDY    37  32  81 NE12      30.09F
MCGREGOR       CLOUDY    37  34  87 N7        30.12R
$$
MNZ071>073-080-081-089-090-097-098-242100-
   Southwest Minnesota

CITY           SKY/WX    TMP DP  RH WIND       PRES   REMARKS
MONTEVIDEO     CLOUDY    39  37  93 NE12      30.14R
GRANITE FALLS  CLOUDY    42  37  84 N15       30.13R
CANBY          CLOUDY    39  37  91 CALM      30.17R
MARSHALL       CLOUDY    40  37  89 N14       30.12R
REDWOOD FALLS  CLOUDY    43  36  76 N13G21    30.09R
OLIVIA         CLOUDY    41  36  81 NE16      30.08F
PIPESTONE      CLOUDY    39  34  81 NE15G22   30.07S HAZE
WINDOM         MOSUNNY   43  37  81 N14       30.05S
WORTHINGTON    CLOUDY    40  37  89 N16       30.04F
JACKSON        CLOUDY    39  39 100 N16       30.02F
TRACY          CLOUDY    42  39  88 N14       30.09R
SLAYTON        CLOUDY    40  37  90 N16       30.07R
$$
MNZ065>067-074>077-082>085-091>093-242100-
   South Central Minnesota

CITY           SKY/WX    TMP DP  RH WIND       PRES   REMARKS
MANKATO        CLOUDY    42  37  82 NE13      30.06R
NEW ULM        CLOUDY    45  36  70 NE13G18   30.05F
ST JAMES       CLOUDY    43  39  87 N14       30.06F
FAIRMONT       CLOUDY    40  38  93 N14       30.02F
GLENCOE        CLOUDY    44  40  85 N9        30.07F
FARIBAULT      CLOUDY    43  37  81 N12       30.06S
OWATONNA       CLOUDY    39  36  87 N12       30.05R FOG
WASECA         CLOUDY    39  36  87 N9        30.06R
ALBERT LEA     CLOUDY    39  37  93 N17       30.00F FOG
$$
MNZ078>079-086>088-094>096-242100-
   Southeast Minnesota

CITY           SKY/WX    TMP DP  RH WIND       PRES   REMARKS
ROCHESTER      CLOUDY    39  38  96 N14       30.01F
RED WING       DRIZZLE   43  36  75 NE3       30.05S
STANTON        CLOUDY    42  38  83 N13       30.04S
DODGE CENTER   CLOUDY    39  37  93 N12       30.03S
WINONA         CLOUDY    41  37  87 NE7       30.03F
AUSTIN         CLOUDY    39  37  93 N14G21    29.99F
PRESTON        CLOUDY    40  38  93 N13G18    29.99S
$$
ABBREVIATIONS USED IN REMARKS
   TC - TEMPERATURES IN CELSIUS
  WCI - WIND CHILL INDEX
   HX - HEAT INDEX
  VSB - VISIBILITY
$$




USA.gov is the U.S. government's official web portal to all federal, state and local government web resources and services.